This is the latest recevied weather packets stored in our database for station/object KP4FJC. If no packets are shown the sender has not sent any weather packets the latest 10 day(s).
| Time | Temp. | Humidity | Pressure | Rain* | Wind** | Luminosity | Snow |
|---|---|---|---|---|---|---|---|
| 1777892205 | 26.67° C | 82% | 1018.3 hPa | 0 mm | - | 73 W/m² | - |
| 1777891902 | 26.11° C | 84% | 1018.3 hPa | 0 mm | - | 66 W/m² | - |
| 1777891599 | 25.56° C | 86% | 1018.1 hPa | 0 mm | - | 57 W/m² | - |
| 1777891295 | 25° C | 88% | 1018.1 hPa | 0 mm | - | 49 W/m² | - |
| 1777890990 | 25° C | 89% | 1018 hPa | 0 mm | - | 38 W/m² | - |
| 1777890685 | 24.44° C | 91% | 1017.9 hPa | 0 mm | - | 32 W/m² | - |
| 1777890381 | 23.89° C | 93% | 1018 hPa | 0 mm | - | 28 W/m² | - |
| 1777890076 | 23.89° C | 94% | 1018.1 hPa | 0 mm | - | 23 W/m² | - |
| 1777889775 | 23.89° C | 95% | 1017.9 hPa | 0 mm | - | 16 W/m² | - |
| 1777889472 | 23.33° C | 95% | 1017.9 hPa | 0 mm | - | 12 W/m² | - |
| 1777889170 | 23.33° C | 95% | 1017.9 hPa | 0 mm | - | 9 W/m² | - |
| 1777888868 | 23.33° C | 95% | 1017.9 hPa | 0 mm | - | 6 W/m² | - |
| 1777888563 | 23.33° C | 95% | 1017.8 hPa | 0 mm | - | 3 W/m² | - |
| 1777888259 | 23.33° C | 94% | 1017.6 hPa | 0 mm | - | 1 W/m² | - |
| 1777887956 | 23.33° C | 94% | 1017.7 hPa | 0 mm | - | 0 W/m² | - |
| 1777887654 | 23.33° C | 94% | 1017.6 hPa | 0 mm | - | 0 W/m² | - |
| 1777887350 | 23.33° C | 94% | 1017.5 hPa | 0 mm | - | 0 W/m² | - |
| 1777887045 | 23.33° C | 94% | 1017.3 hPa | 0 mm | - | 0 W/m² | - |
| 1777886741 | 23.89° C | 94% | 1017.5 hPa | 0 mm | - | 0 W/m² | - |
| 1777886438 | 23.89° C | 94% | 1017.4 hPa | 0 mm | - | 0 W/m² | - |
| 1777886136 | 23.89° C | 94% | 1017.6 hPa | 0 mm | - | 0 W/m² | - |
| 1777885834 | 23.89° C | 93% | 1017.5 hPa | 0 mm | - | 0 W/m² | - |
| 1777885532 | 23.89° C | 93% | 1017.4 hPa | 0 mm | - | 0 W/m² | - |
| 1777885230 | 23.89° C | 93% | 1017.2 hPa | 0 mm | - | 0 W/m² | - |
| 1777884928 | 23.89° C | 93% | 1017.3 hPa | 0 mm | - | 0 W/m² | - |
* Rain latest hour (hover to see other rain measurements)
** Current wind speed in m/s (hover to see current wind gust speed)